This is the latest recevied weather packets stored in our database for station/object SIILIN. If no packets are shown the sender has not sent any weather packets the latest 10 day(s).
| Time | Temp. | Humidity | Pressure | Rain* | Wind** | Luminosity | Snow |
|---|---|---|---|---|---|---|---|
| 1777900034 | 8.89° C | 51% | 1000.9 hPa | - | - | - | - |
| 1777897634 | 8.33° C | 45% | 1001.2 hPa | - | - | - | - |
| 1777896435 | 8.33° C | 42% | 1001.4 hPa | - | - | - | - |
| 1777895235 | 7.78° C | 41% | 1001.6 hPa | - | - | - | - |
| 1777894034 | 7.78° C | 38% | 1001.8 hPa | - | - | - | - |
| 1777892834 | 7.78° C | 34% | 1001.9 hPa | - | - | - | - |
| 1777891634 | 7.78° C | 36% | 1002.1 hPa | - | - | - | - |
| 1777890434 | 7.78° C | 40% | 1002.4 hPa | - | - | - | - |
| 1777889234 | 7.22° C | 45% | 1002.9 hPa | - | - | - | - |
| 1777886834 | 6.67° C | 46% | 1003.4 hPa | - | - | - | - |
| 1777885633 | 6.67° C | 46% | 1003.5 hPa | - | - | - | - |
| 1777883234 | 6.67° C | 48% | 1003.7 hPa | - | - | - | - |
| 1777882034 | 6.11° C | 55% | 1003.7 hPa | - | - | - | - |
| 1777879634 | 6.11° C | 58% | 1004 hPa | - | - | - | - |
| 1777878433 | 5.56° C | 63% | 1004.1 hPa | - | - | - | - |
| 1777877233 | 5° C | 69% | 1004.3 hPa | - | - | - | - |
| 1777876033 | 4.44° C | 71% | 1004.5 hPa | - | - | - | - |
| 1777874833 | 3.89° C | 73% | 1004.7 hPa | - | - | - | - |
| 1777873633 | 3.89° C | 70% | 1004.9 hPa | - | - | - | - |
| 1777872433 | 3.33° C | 70% | 1005.1 hPa | - | - | - | - |
| 1777871233 | 3.33° C | 71% | 1005.3 hPa | - | - | - | - |
| 1777870033 | 3.33° C | 69% | 1005.5 hPa | - | - | - | - |
| 1777868833 | 2.78° C | 69% | 1005.8 hPa | - | - | - | - |
| 1777867633 | 2.78° C | 69% | 1006 hPa | - | - | - | - |
| 1777866433 | 2.78° C | 68% | 1006.1 hPa | - | - | - | - |
* Rain since midnight (hover to see other rain measurements)
** Current wind speed in m/s (hover to see current wind gust speed)